Zurück zum Katalog

CZ-6A DEB

AktivPO
NORAD 54264·DEBRIS·🇨🇳 China

Gestartet Nov 11, 2022 von Taiyuan Satellite Launch Center

Loading…

Nächste Überflüge (nächste 24 Stunden)

TLE

AktuellSource: Space-Track

Epoche: Sep 14, 2026, 18:21 UTC

1 54264U 22151F   26257.76521581  .00000086  00000-0  13146-3 0  9991
2 54264  98.5712  88.8236 0353090  98.8632 265.2647 13.47535077188805

Verfolge CZ-6A DEB in Echtzeit mit AllMySat

Download on the App Store